C/2018 A3 ( ATLAS )

Japanese version
Home page
Updated on October 22, 2018

---------------------------------------------------------------------

* Profile

Discovery Date January 10, 2018
Magnitude 18.7 mag
Discoverer Asteroid Terrestrial-impact Last Alert System (ATLAS) search program

* Pictures

* Orbital Elements

Epoch 2018 Dec. 28.0 TT = JDT 2458480.5
T 2019 Jan. 12.86409 TT                                 MPCW
q   3.2767184            (2000.0)            P               Q
z  +0.0020121      Peri.   86.42635     -0.24776744     +0.95551889
 +/-0.0000034      Node   194.27937     +0.40379713     +0.25195622
e   0.9934071      Incl.  139.56174     +0.88065837     +0.15330266
From 669 observations 2018 Jan. 10-July 13, mean residual 0".4.

* Finding Charts

* Magnitudes Graph

        m1 = 8.0 + 5 log d + 10.0 log r

---------------------------------------------------------------------

The orbital elements are published on M.P.E.C. 2018-S50.
The charts are made with StellaNavigator Ver.10 (AstroArts).
The magnitudes graphs are made with Comet for Windows.

---------------------------------------------------------------------

Copyright(C) Seiichi Yoshida (comet@aerith.net). All rights reserved.